Location: Street
(51.1247°N, 2.7429°W)
Time: 23:18:40
(UTC+01:00)

Envisat - Visible Passes

Search period start: 19 October 2020 00:00
Search period end: 28 October 2020 23:00
Orbit: 764 x 766 km, 98.1° (Epoch: 18 October)

Date Brightness Start Highest point End Pass type
(mag) Time Alt. Az. Time Alt. Az. Time Alt. Az.
19 Oct 5.6 06:17:45 10° NE 06:21:53 24° E 06:26:00 10° SE visible
19 Oct 5.5 19:17:02 10° SSW 19:21:16 26° W 19:25:31 10° NW visible
20 Oct 6.5 05:42:32 10° ENE 05:44:35 12° E 05:46:38 10° ESE visible
20 Oct 4.1 18:39:16 10° S 18:44:11 51° W 18:49:10 10° NNW visible
21 Oct 4.7 06:42:46 10° NNE 06:47:32 39° E 06:52:17 10° SSE visible
21 Oct 6.2 19:43:51 10° SW 19:47:01 16° W 19:50:11 10° NW visible
22 Oct 5.9 06:06:40 10° NE 06:10:24 20° E 06:14:06 10° SE visible
22 Oct 5.1 19:05:17 10° SSW 19:09:48 32° W 19:14:20 10° NNW visible
23 Oct 3.7 07:08:02 10° NNE 07:13:06 63° ESE 07:18:08 10° S visible
23 Oct 3.7 18:27:45 10° S 18:32:47 62° WSW 18:37:51 10° NNW visible
24 Oct 5.1 06:31:32 10° NNE 06:36:06 32° E 06:40:37 10° SSE visible
24 Oct 5.9 19:31:48 10° SW 19:35:30 20° W 19:39:13 10° NW visible
25 Oct 6.1 04:55:42 10° NE 04:58:52 16° E 05:02:03 10° SE visible
25 Oct 4.7 17:53:37 10° SSW 17:58:21 38° W 18:03:07 10° NNW visible
26 Oct 4.1 05:56:43 10° NNE 06:01:41 51° E 06:06:38 10° S visible
26 Oct 6.4 18:59:17 10° WSW 19:01:18 12° W 19:03:19 10° WNW visible
27 Oct 5.4 05:20:21 10° NE 05:24:37 26° E 05:28:52 10° SSE visible
27 Oct 5.5 18:19:54 10° SW 18:24:00 24° W 18:28:08 10° NW visible
28 Oct 6.3 04:44:55 10° NE 04:47:20 13° E 04:49:45 10° ESE visible
28 Oct 3.2 06:22:04 10° NNE 06:27:11 82° ESE 06:32:17 10° SSW visible
28 Oct 4.2 17:42:01 10° S 17:46:54 47° W 17:51:50 10° NNW visible
